[[{"header":{"parameterUnit":"m.s-1","parameterCategory":2,"la1":30.2991,"la2":30.254,"lo1":-89.0895,"lo2":-89.0444,"dy":0.0017,"dx":0.0017,"nx":28,"ny":28,"refTime":"2023-09-21T09:00:00:Z","depth":"0","parameterNumber":2,"parameterNumberName":"U-component_of_CURRENTS"},"data":[0,0,0,0,0,0,0,0,0,0,0,0,0,0,0,0,0,0,0,0,0,0,0,0,0,0,0,0,0,0,0,0,0,0,0,0,0,0,0,0,0,0,0,0,0,0,0,0,0,0,0,0,0,0,0,0,0,0,-0.2818,-0.2818,0,-0.2833,-0.2833,-0.2833,-0.2802,-0.2801,-0.2801,-0.28,-0.274,-0.2739,-0.2738,0,0,0,0,0,0,0,0,0,0,0,0,0,-0.2738,-0.274,-0.2818,-0.2818,-0.2819,-0.2833,-0.2833,-0.2833,-0.2802,-0.2801,-0.2801,-0.28,-0.2741,-0.2739,-0.2738,0,0,0,0,0,0,0,0,0,0,0,0,0,-0.2761,-0.274,-0.2818,-0.2808,-0.2808,-0.2833,-0.2833,-0.2833,-0.2802,-0.2801,-0.28,-0.28,-0.2741,-0.2739,-0.2738,-0.2748,0,0,-0.2733,-0.2733,0,0,0,0,0,0,0,0,-0.276,-0.2764,-0.2809,-0.2809,-0.2809,-0.2818,-0.2783,-0.2802,-0.2803,-0.28,-0.28,-0.2799,-0.2763,-0.2759,-0.276,-0.2745,-0.2742,-0.2733,-0.2732,-0.2732,-0.2731,0,0,0,0,0,0,0,-0.2759,-0.2763,-0.282,-0.281,-0.281,-0.2796,-0.2798,-0.2786,-0.2782,-0.28,-0.2799,-0.2808,-0.2761,-0.2761,-0.2758,-0.2741,-0.2733,-0.2732,-0.2731,-0.273,-0.2755,-0.2756,0,0,0,0,0,0,-0.2768,-0.2762,-0.2819,-0.282,-0.2786,-0.2798,-0.28,-0.2813,-0.2784,-0.278,-0.2808,-0.2806,-0.2764,-0.276,-0.2755,-0.278,-0.2732,-0.273,-0.2729,-0.2753,-0.2755,-0.2757,0,0,0,0,0,0,-0.2766,-0.2773,-0.2819,-0.2794,-0.2799,-0.2801,-0.2815,-0.2814,-0.2812,-0.2792,-0.2785,-0.2808,-0.2763,-0.2758,-0.2757,-0.2777,-0.273,-0.2728,-0.2751,-0.2754,-0.2756,-0.2819,0,0,0,0,0,0,-0.2764,-0.2772,-0.2779,-0.2795,-0.2801,-0.2844,-0.2817,-0.2815,-0.2821,-0.2818,-0.279,-0.2783,-0.2762,-0.276,-0.2756,-0.2774,-0.2727,-0.2749,-0.2752,-0.2755,-0.2815,-0.2823,-0.283,0,0,0,0,0,-0.2761,-0.2779,-0.278,-0.2787,-0.2813,-0.2846,-0.2848,-0.2842,-0.2822,-0.2833,-0.2815,-0.2784,-0.2776,-0.276,-0.2755,-0.2773,-0.2748,-0.2752,-0.2755,-0.2812,-0.2822,-0.283,0,0,0,0,0,0,-0.2745,-0.2779,-0.2779,-0.2806,-0.2829,-0.2842,-0.2849,-0.2846,-0.2841,-0.283,-0.2801,-0.2794,-0.2803,-0.2784,-0.2767,-0.2791,-0.2758,-0.2761,-0.2803,-0.2812,-0.282,-0.2816,-0.2726,0,0,0,0,0,-0.2749,-0.2768,-0.2801,-0.2819,-0.2833,-0.284,-0.2849,-0.2851,-0.2853,-0.2849,-0.2831,-0.2816,-0.2816,-0.281,-0.2803,-0.2813,-0.2787,-0.2824,-0.2832,-0.2838,-0.2833,-0.2821,-0.2827,-0.2768,-0.2768,-0.2768,0,0,-0.2743,-0.2767,-0.2775,-0.2816,-0.2827,-0.2861,-0.2842,-0.2864,-0.2886,-0.2843,-0.2854,-0.284,-0.2825,-0.284,-0.2842,-0.2824,-0.2844,-0.2842,-0.2848,-0.284,-0.2826,-0.2831,-0.2836,-0.2771,-0.277,-0.277,0,0,-0.2754,-0.277,-0.2794,-0.2824,-0.2859,-0.2871,-0.2881,-0.2902,-0.2903,-0.2921,-0.2898,-0.2897,-0.2892,-0.2888,-0.2884,-0.2931,-0.2886,-0.2933,-0.2963,-0.2953,-0.2957,-0.296,-0.2942,-0.2943,-0.2935,-0.2935,-0.2935,0,-0.2744,-0.2782,-0.2805,-0.2846,-0.2867,-0.2879,-0.2911,-0.2929,-0.2945,-0.2947,-0.2932,-0.2931,-0.2915,-0.2934,-0.2951,-0.2946,-0.2929,-0.2928,-0.2961,-0.2964,-0.2966,-0.2947,-0.2947,-0.2938,-0.2938,-0.2938,-0.2937,0,-0.2782,-0.2813,-0.2831,-0.2884,-0.2914,-0.2942,-0.298,-0.3,-0.2997,-0.3006,-0.3019,-0.3005,-0.2997,-0.3004,-0.2989,-0.3007,-0.2987,-0.2972,-0.2933,-0.2975,-0.2953,-0.2952,-0.2943,-0.2942,-0.2941,-0.294,0,0,-0.2745,-0.2837,-0.284,-0.2868,-0.2933,-0.2958,-0.3006,-0.3043,-0.3063,-0.3074,-0.3088,-0.3094,-0.3074,-0.3069,-0.3054,-0.3049,-0.3053,-0.302,-0.3017,-0.2994,-0.3024,-0.2962,-0.2955,-0.3043,-0.3043,-0.3043,-0.3004,0,-0.2756,-0.2825,-0.2873,-0.2928,-0.2961,-0.3004,-0.305,-0.3088,-0.3104,-0.3126,-0.3119,-0.3125,-0.3105,-0.3097,-0.3093,-0.3064,-0.3053,-0.3064,-0.2993,-0.2991,-0.2924,-0.2953,-0.2856,-0.2809,-0.3003,-0.3003,-0.3003,0,-0.2764,-0.2812,-0.2866,-0.2945,-0.2964,-0.3002,-0.3056,-0.31,-0.3148,-0.3161,-0.3169,-0.3164,-0.3165,-0.3135,-0.3104,-0.3112,-0.307,-0.3045,-0.3043,-0.2958,-0.2927,-0.2798,-0.2799,-0.2779,-0.3001,-0.3001,-0.3001,0,-0.2702,-0.2796,-0.2829,-0.286,-0.2962,-0.2986,-0.303,-0.3093,-0.3128,-0.3168,-0.3186,-0.3193,-0.3182,-0.315,-0.3096,-0.31,-0.3049,-0.3046,-0.2952,-0.2947,-0.2835,-0.282,-0.2797,-0.3013,-0.3013,-0.3013,-0.3014,0,-0.2682,-0.2709,-0.2802,-0.2826,-0.2872,-0.2949,-0.2994,-0.3046,-0.3112,-0.3139,-0.3183,-0.3192,-0.3183,-0.3156,-0.3107,-0.3021,-0.3053,-0.2955,-0.2933,-0.2856,-0.2844,-0.2795,-0.28,-0.3012,-0.3012,-0.3013,-0.3013,0,-0.2605,-0.267,-0.2715,-0.2813,-0.2844,-0.2868,-0.297,-0.2995,-0.3077,-0.3111,-0.3122,-0.3184,-0.3151,-0.3128,-0.3071,-0.3021,-0.2897,-0.2909,-0.2817,-0.2784,-0.2683,-0.2695,-0.2614,-0.254,-0.2811,-0.2809,-0.2807,0,-0.257,-0.2583,-0.2679,-0.2694,-0.2733,-0.2792,-0.2827,-0.2946,-0.2974,-0.3088,-0.3083,-0.3105,-0.3082,-0.3004,-0.2921,-0.283,-0.2809,-0.2693,-0.2684,-0.2661,-0.2659,-0.266,-0.2604,-0.2566,-0.2563,-0.256,-0.2558,0,-0.2485,-0.2513,-0.2546,-0.2587,-0.2619,-0.2674,-0.2732,-0.2769,-0.289,-0.2938,-0.2978,-0.2983,-0.2941,-0.2823,-0.2729,-0.2659,-0.2628,-0.2634,-0.2631,-0.2481,-0.2458,-0.2381,-0.2615,-0.2533,-0.2536,-0.2538,-0.2539,-0.254,-0.2389,-0.2388,-0.2419,-0.2445,-0.2487,-0.2514,-0.2505,-0.2585,-0.2634,-0.2669,-0.2781,-0.2759,-0.2738,-0.2599,-0.2533,-0.2405,-0.2437,-0.2342,-0.2363,-0.2371,-0.2283,-0.2463,-0.2346,-0.2347,-0.2348,-0.2349,-0.235,0,-0.2251,-0.2258,-0.2272,-0.2293,-0.2273,-0.2352,-0.2396,-0.236,-0.2355,-0.2452,-0.2466,-0.2492,-0.2387,-0.2376,-0.2267,-0.2168,-0.2115,-0.2119,-0.2107,-0.2065,-0.2233,-0.2206,-0.2026,-0.2026,-0.2026,-0.2026,-0.2026,-0.2026,-0.217,-0.2126,-0.2142,-0.206,-0.207,-0.1993,-0.1982,-0.1965,-0.2001,-0.2008,-0.2065,-0.2175,-0.2172,-0.2296,-0.2162,-0.2059,-0.1998,-0.193,-0.1946,-0.2091,-0.2115,-0.2137,-0.2113,-0.1917,-0.1917,-0.1713,-0.1711,-0.171]},{"header":{"parameterUnit":"m.s-1","parameterCategory":2,"la1":30.2991,"la2":30.254,"lo1":-89.0895,"lo2":-89.0444,"dy":0.0017,"dx":0.0017,"nx":28,"ny":28,"refTime":"2023-09-21T09:00:00:Z","depth":"0","parameterNumber":3,"parameterNumberName":"V-component_of_CURRENTS"},"data":[0,0,0,0,0,0,0,0,0,0,0,0,0,0,0,0,0,0,0,0,0,0,0,0,0,0,0,0,0,0,0,0,0,0,0,0,0,0,0,0,0,0,0,0,0,0,0,0,0,0,0,0,0,0,0,0,0,0,-0.0334,-0.0333,0,-0.0241,-0.024,-0.0239,-0.0179,-0.0179,-0.0179,-0.0179,-0.0056,-0.0053,-0.005,0,0,0,0,0,0,0,0,0,0,0,0,0,-0.0398,-0.0397,-0.0334,-0.0333,-0.0332,-0.0241,-0.024,-0.0239,-0.0179,-0.0179,-0.0179,-0.0179,-0.0057,-0.0054,-0.005,0,0,0,0,0,0,0,0,0,0,0,0,0,-0.0343,-0.0397,-0.0334,-0.0292,-0.0288,-0.0242,-0.024,-0.0238,-0.0179,-0.0179,-0.0179,-0.0178,-0.0059,-0.0054,-0.005,-0.0029,0,0,-0.0036,-0.0034,0,0,0,0,0,0,0,0,-0.0346,-0.0341,-0.03,-0.0295,-0.029,-0.0223,-0.0218,-0.0167,-0.018,-0.0219,-0.0179,-0.0178,-0.011,-0.0102,-0.0083,-0.0023,-0.0018,-0.0035,-0.0033,-0.0031,-0.0029,0,0,0,0,0,0,0,-0.035,-0.0344,-0.0296,-0.0299,-0.0293,-0.0257,-0.0249,-0.0208,-0.0166,-0.0216,-0.0212,-0.0203,-0.0107,-0.0088,-0.008,-0.0016,-0.0036,-0.0032,-0.0029,-0.0027,0.0073,0.0073,0,0,0,0,0,0,-0.0368,-0.0348,-0.0299,-0.0293,-0.0319,-0.0257,-0.0248,-0.0244,-0.0167,-0.0156,-0.0204,-0.0201,-0.0096,-0.0086,-0.0076,-0.0046,-0.0031,-0.0027,-0.0024,0.0073,0.0073,0.0073,0,0,0,0,0,0,-0.037,-0.0365,-0.0303,-0.0319,-0.0309,-0.0257,-0.0252,-0.0242,-0.0223,-0.0159,-0.0147,-0.0196,-0.0095,-0.0082,-0.0039,-0.004,-0.0024,-0.002,0.0073,0.0073,0.0073,0.0014,0,0,0,0,0,0,-0.0372,-0.0366,-0.0371,-0.0321,-0.0309,-0.0285,-0.0252,-0.024,-0.0219,-0.0215,-0.0148,-0.0136,-0.0094,-0.0046,-0.0034,-0.0034,-0.0017,0.0073,0.0073,0.0073,0.0016,0.0012,0.0008,0,0,0,0,0,-0.0375,-0.0387,-0.0372,-0.0366,-0.0317,-0.0286,-0.0277,-0.0237,-0.022,-0.0217,-0.0167,-0.0138,-0.0039,-0.0042,-0.0028,-0.0027,0.0073,0.0073,0.0073,0.0018,0.0013,0.0008,0,0,0,0,0,0,-0.0419,-0.0381,-0.0363,-0.0364,-0.0331,-0.0277,-0.0273,-0.0243,-0.0202,-0.0197,-0.0135,-0.0119,-0.0084,-0.0048,-0.0053,0.0001,0.002,0.0023,-0.0026,-0.003,-0.0034,-0.0047,-0.0013,0,0,0,0,0,-0.0432,-0.0431,-0.0386,-0.0387,-0.0375,-0.0325,-0.0308,-0.0281,-0.0237,-0.0218,-0.0169,-0.0119,-0.0074,-0.0047,-0.0006,0.0027,0.007,0.0035,0.0032,0.0028,0.0027,0.0091,0.0092,0.0072,0.0072,0.0072,0,0,-0.045,-0.0429,-0.0429,-0.0397,-0.0369,-0.0362,-0.0314,-0.0296,-0.0281,-0.0212,-0.018,-0.0132,-0.007,-0.0034,-0.0015,-0.0003,0.0056,0.0028,0.0024,0.0025,0.0091,0.0093,0.0095,0.0072,0.0072,0.0072,0,0,-0.0492,-0.0468,-0.0484,-0.0458,-0.0425,-0.0394,-0.0393,-0.0341,-0.0309,-0.0273,-0.0219,-0.0171,-0.0107,-0.0057,-0.0024,-0.0023,0.003,-0.0015,-0.0038,0.0023,0.0026,0.0028,0.0082,0.009,-0.0013,-0.0013,-0.0013,0,-0.0518,-0.0526,-0.0484,-0.0487,-0.0472,-0.0415,-0.0422,-0.0383,-0.0321,-0.0291,-0.0275,-0.0165,-0.0116,-0.0055,-0.0056,-0.0032,0.0009,-0.0027,0.0018,0.0022,0.0025,0.008,0.009,-0.0016,-0.0016,-0.0016,-0.0015,0,-0.0566,-0.0569,-0.0576,-0.0563,-0.054,-0.0537,-0.0479,-0.045,-0.0408,-0.0359,-0.0292,-0.0216,-0.0149,-0.0127,-0.009,-0.0039,-0.0018,0.0002,0.0028,0.0024,0.0082,0.0093,-0.002,-0.0019,-0.0018,-0.0018,0,0,-0.0632,-0.0618,-0.0618,-0.0622,-0.0578,-0.0567,-0.0537,-0.0489,-0.0463,-0.0392,-0.0346,-0.0263,-0.0213,-0.0173,-0.0113,-0.0057,0.0001,-0.0024,-0.0019,0.0025,0.0135,0.0184,0.0201,0.0029,0.0031,0.0032,0.0163,0,-0.0685,-0.072,-0.0685,-0.0706,-0.0718,-0.0646,-0.0623,-0.0564,-0.05,-0.044,-0.0338,-0.028,-0.0232,-0.0198,-0.0134,-0.0027,0.0028,-0.0036,0.0136,0.0141,0.0182,0.0214,0.0255,0.0378,0.0174,0.0176,0.0178,0,-0.0739,-0.0757,-0.0794,-0.0777,-0.0773,-0.077,-0.0712,-0.0682,-0.0574,-0.0517,-0.0428,-0.0345,-0.0239,-0.0208,-0.0027,-0.007,0.002,0.0099,0.0107,0.0181,0.0211,0.0351,0.0406,0.0553,0.0195,0.0194,0.0192,0,-0.0811,-0.0824,-0.086,-0.0853,-0.0829,-0.0819,-0.0799,-0.071,-0.0675,-0.0564,-0.052,-0.038,-0.0302,-0.017,0.0005,-0.0012,0.0204,0.0204,0.0333,0.0337,0.0421,0.043,0.0637,0.0318,0.0318,0.0317,0.0317,0,-0.0877,-0.09,-0.09,-0.0919,-0.0953,-0.0896,-0.0893,-0.0843,-0.0755,-0.0712,-0.0573,-0.0494,-0.029,-0.0133,0.0003,0.0218,0.021,0.0341,0.0382,0.0401,0.0407,0.0577,0.0623,0.0322,0.0321,0.032,0.0319,0,-0.0944,-0.0944,-0.0989,-0.0989,-0.0992,-0.1015,-0.0978,-0.0963,-0.087,-0.0804,-0.0771,-0.0566,-0.0349,-0.0136,0.0105,0.0225,0.0514,0.0483,0.0491,0.053,0.0768,0.0807,0.104,0.1127,0.0642,0.0644,0.0646,0,-0.0983,-0.1015,-0.1056,-0.1089,-0.1094,-0.1111,-0.1115,-0.104,-0.1007,-0.0841,-0.0809,-0.058,-0.0395,-0.0008,0.0257,0.053,0.0627,0.0703,0.0677,0.0806,0.0881,0.0899,0.0956,0.0765,0.0768,0.077,0.0772,0,-0.1055,-0.1068,-0.1109,-0.1185,-0.1215,-0.1239,-0.123,-0.1219,-0.1106,-0.1016,-0.0842,-0.0678,-0.0274,0.0093,0.0453,0.0604,0.0817,0.0753,0.09,0.101,0.1033,0.1128,0.0643,0.0791,0.0789,0.0787,0.0786,0.0786,-0.1101,-0.1157,-0.121,-0.1277,-0.1319,-0.1345,-0.135,-0.1302,-0.1238,-0.107,-0.0885,-0.06,-0.0056,0.0481,0.0663,0.1051,0.0988,0.1145,0.1188,0.1197,0.1276,0.0827,0.1008,0.1007,0.1007,0.1006,0.1006,0,-0.1155,-0.1214,-0.129,-0.1366,-0.1419,-0.1414,-0.1405,-0.1369,-0.1287,-0.1081,-0.0869,-0.0254,0.0263,0.0729,0.1296,0.1479,0.1506,0.1563,0.1607,0.1647,0.1277,0.1277,0.151,0.151,0.1509,0.1509,0.1509,0.1509,-0.1185,-0.1274,-0.1319,-0.1428,-0.1473,-0.1506,-0.1496,-0.1416,-0.1264,-0.0913,-0.0563,-0.0253,0.0443,0.1378,0.1868,0.1889,0.2035,0.2011,0.2093,0.1839,0.1803,0.1768,0.1782,0.2117,0.2118,0.2454,0.2457,0.2459]}],[{"header":{"parameterUnit":"m.s-1","parameterCategory":2,"la1":30.2991,"la2":30.254,"lo1":-89.0895,"lo2":-89.0444,"dy":0.0017,"dx":0.0017,"nx":28,"ny":28,"refTime":"2023-09-21T09:00:00:Z","depth":"2","parameterNumber":2,"parameterNumberName":"U-component_of_CURRENTS"},"data":[0,0,0,0,0,0,0,0,0,0,0,0,0,0,0,0,0,0,0,0,0,0,0,0,0,0,0,0,0,0,0,0,0,0,0,0,0,0,0,0,0,0,0,0,0,0,0,0,0,0,0,0,0,0,0,0,0,0,-0.2549,-0.255,0,-0.2565,-0.2565,-0.2565,-0.2543,-0.2543,-0.2542,-0.2542,-0.2497,-0.2496,-0.2495,0,0,0,0,0,0,0,0,0,0,0,0,0,-0.2476,-0.2478,-0.2549,-0.255,-0.255,-0.2565,-0.2565,-0.2565,-0.2543,-0.2543,-0.2542,-0.2542,-0.2497,-0.2496,-0.2495,0,0,0,0,0,0,0,0,0,0,0,0,0,-0.2498,-0.2478,-0.2549,-0.2544,-0.2544,-0.2565,-0.2565,-0.2565,-0.2543,-0.2543,-0.2542,-0.2541,-0.2497,-0.2496,-0.2495,-0.25,0,0,-0.2491,-0.2491,0,0,0,0,0,0,0,0,-0.2497,-0.25,-0.2544,-0.2544,-0.2544,-0.2555,-0.2523,-0.2542,-0.2543,-0.2539,-0.2542,-0.2541,-0.2513,-0.2511,-0.2511,-0.2498,-0.2496,-0.2491,-0.249,-0.249,-0.2489,0,0,0,0,0,0,0,-0.2495,-0.2499,-0.2551,-0.2545,-0.2545,-0.2534,-0.2536,-0.2527,-0.2526,-0.254,-0.2539,-0.2547,-0.2512,-0.2512,-0.2509,-0.2496,-0.2491,-0.249,-0.2489,-0.2489,-0.252,-0.2522,0,0,0,0,0,0,-0.2504,-0.2498,-0.2551,-0.2552,-0.2523,-0.2536,-0.2538,-0.2549,-0.2527,-0.2525,-0.2548,-0.2546,-0.2514,-0.2511,-0.2508,-0.2539,-0.249,-0.2489,-0.2488,-0.2519,-0.2521,-0.2522,0,0,0,0,0,0,-0.2502,-0.2508,-0.255,-0.2528,-0.2533,-0.2538,-0.2551,-0.255,-0.2553,-0.2535,-0.253,-0.2553,-0.2514,-0.2509,-0.2514,-0.2536,-0.2488,-0.2487,-0.2517,-0.2519,-0.2521,-0.2586,0,0,0,0,0,0,-0.25,-0.2508,-0.2516,-0.2529,-0.2535,-0.2576,-0.2552,-0.2551,-0.2561,-0.2559,-0.2538,-0.2533,-0.2513,-0.2516,-0.2513,-0.2534,-0.2486,-0.2515,-0.2518,-0.2521,-0.2582,-0.259,-0.2597,0,0,0,0,0,-0.2497,-0.2515,-0.2516,-0.2523,-0.2548,-0.2578,-0.258,-0.2577,-0.2562,-0.2574,-0.2561,-0.2533,-0.2533,-0.2517,-0.2513,-0.2533,-0.2513,-0.2517,-0.252,-0.2578,-0.2588,-0.2597,0,0,0,0,0,0,-0.2486,-0.2516,-0.2517,-0.2542,-0.2564,-0.2576,-0.2585,-0.2584,-0.2583,-0.2576,-0.255,-0.2545,-0.2559,-0.2541,-0.2524,-0.2553,-0.252,-0.2523,-0.2565,-0.2575,-0.2582,-0.2578,-0.2485,0,0,0,0,0,-0.249,-0.2509,-0.2538,-0.2556,-0.257,-0.2577,-0.2587,-0.2591,-0.2595,-0.2593,-0.258,-0.257,-0.2571,-0.2568,-0.2564,-0.2577,-0.2552,-0.259,-0.2598,-0.2604,-0.26,-0.259,-0.2595,-0.2534,-0.2534,-0.2534,0,0,-0.2488,-0.2508,-0.2517,-0.2555,-0.2566,-0.2598,-0.2581,-0.2605,-0.2627,-0.2588,-0.2605,-0.2595,-0.2581,-0.2599,-0.2604,-0.2586,-0.2612,-0.2609,-0.2614,-0.2606,-0.2594,-0.26,-0.2605,-0.2536,-0.2536,-0.2535,0,0,-0.25,-0.2515,-0.2538,-0.2567,-0.26,-0.2611,-0.2623,-0.2644,-0.2648,-0.267,-0.265,-0.2653,-0.2653,-0.265,-0.2647,-0.2695,-0.2654,-0.2699,-0.2731,-0.2722,-0.2727,-0.273,-0.2716,-0.2717,-0.2702,-0.2702,-0.2702,0,-0.2494,-0.2529,-0.2549,-0.2587,-0.2608,-0.2621,-0.2652,-0.2671,-0.269,-0.2695,-0.2684,-0.269,-0.2676,-0.2696,-0.2715,-0.271,-0.2696,-0.2696,-0.2731,-0.2734,-0.2736,-0.272,-0.2721,-0.2706,-0.2705,-0.2705,-0.2704,0,-0.2531,-0.256,-0.2578,-0.2627,-0.2656,-0.2684,-0.272,-0.2743,-0.2745,-0.2755,-0.2775,-0.2763,-0.2761,-0.2768,-0.2754,-0.2776,-0.2757,-0.2741,-0.2703,-0.2746,-0.2727,-0.2727,-0.2711,-0.2709,-0.2708,-0.2707,0,0,-0.25,-0.2584,-0.2587,-0.2614,-0.2676,-0.27,-0.2749,-0.2786,-0.2808,-0.2825,-0.2843,-0.2853,-0.2837,-0.2834,-0.2821,-0.2818,-0.2827,-0.2791,-0.2789,-0.277,-0.2804,-0.2741,-0.2734,-0.2817,-0.2817,-0.2817,-0.2787,0,-0.2513,-0.2577,-0.262,-0.2674,-0.2704,-0.2746,-0.2791,-0.2831,-0.285,-0.2876,-0.2874,-0.2886,-0.2868,-0.2864,-0.2863,-0.2837,-0.2829,-0.2837,-0.2771,-0.2769,-0.2701,-0.2732,-0.253,-0.2481,-0.2786,-0.2786,-0.2786,0,-0.2521,-0.2565,-0.2617,-0.2691,-0.2709,-0.2747,-0.2803,-0.2847,-0.2897,-0.2914,-0.2928,-0.2926,-0.2933,-0.2905,-0.2881,-0.2887,-0.2849,-0.2825,-0.2823,-0.2737,-0.2704,-0.2487,-0.2469,-0.2785,-0.2785,-0.2785,-0.2785,0,-0.2466,-0.2553,-0.2586,-0.2615,-0.2711,-0.2737,-0.278,-0.2844,-0.2879,-0.2926,-0.2946,-0.2959,-0.2954,-0.2926,-0.2878,-0.2881,-0.2837,-0.2833,-0.2739,-0.2734,-0.2534,-0.251,-0.2803,-0.2803,-0.2803,-0.2803,-0.2803,0,-0.2449,-0.2476,-0.2563,-0.2586,-0.2632,-0.2706,-0.2753,-0.2805,-0.2871,-0.2898,-0.2948,-0.2957,-0.2957,-0.2934,-0.289,-0.2809,-0.2842,-0.2743,-0.2721,-0.2553,-0.2533,-0.277,-0.2767,-0.2802,-0.2802,-0.2802,-0.2803,0,-0.2379,-0.244,-0.2484,-0.2578,-0.2607,-0.2633,-0.2732,-0.2757,-0.2842,-0.2876,-0.289,-0.2952,-0.2926,-0.2909,-0.2859,-0.281,-0.2748,-0.2703,-0.2507,-0.2463,-0.2652,-0.2652,-0.2613,-0.261,-0.2608,-0.2606,-0.2605,0,-0.2348,-0.2361,-0.2453,-0.2467,-0.2506,-0.2565,-0.2599,-0.2715,-0.2739,-0.2851,-0.2845,-0.2874,-0.2849,-0.2781,-0.2694,-0.2609,-0.2675,-0.2382,-0.2355,-0.2649,-0.2632,-0.2636,-0.264,-0.2117,-0.2111,-0.2107,-0.2104,0,-0.227,-0.2298,-0.2329,-0.2367,-0.24,-0.2451,-0.2506,-0.2537,-0.2653,-0.2697,-0.2731,-0.2734,-0.2693,-0.2524,-0.2436,-0.2357,-0.2389,-0.2292,-0.2628,-0.2208,-0.2182,-0.2166,-0.2185,-0.2064,-0.2068,-0.2071,-0.2073,-0.2075,-0.2183,-0.2181,-0.2209,-0.2234,-0.2274,-0.2295,-0.2282,-0.2351,-0.2389,-0.2402,-0.2514,-0.2447,-0.2437,-0.2205,-0.209,-0.1999,-0.2161,-0.2058,-0.2071,-0.2089,-0.2049,-0.2021,-0.1866,-0.1868,-0.1871,-0.1873,-0.1875,0,-0.2052,-0.2059,-0.207,-0.2088,-0.2064,-0.2144,-0.2175,-0.2124,-0.2102,-0.2152,-0.2151,-0.1947,-0.1855,-0.1844,-0.1651,-0.1623,-0.1597,-0.1552,-0.1515,-0.1554,-0.159,-0.1524,-0.1202,-0.12,-0.1198,-0.1196,0,0,-0.1976,-0.1931,-0.1943,-0.186,-0.1869,-0.1788,-0.1771,-0.1725,-0.1717,-0.1636,-0.1602,-0.1742,-0.1796,-0.1501,-0.1433,-0.1285,-0.1402,-0.122,-0.1759,-0.1754,-0.1787,-0.188,-0.1824,0,0,0,0,0]},{"header":{"parameterUnit":"m.s-1","parameterCategory":2,"la1":30.2991,"la2":30.254,"lo1":-89.0895,"lo2":-89.0444,"dy":0.0017,"dx":0.0017,"nx":28,"ny":28,"refTime":"2023-09-21T09:00:00:Z","depth":"2","parameterNumber":3,"parameterNumberName":"V-component_of_CURRENTS"},"data":[0,0,0,0,0,0,0,0,0,0,0,0,0,0,0,0,0,0,0,0,0,0,0,0,0,0,0,0,0,0,0,0,0,0,0,0,0,0,0,0,0,0,0,0,0,0,0,0,0,0,0,0,0,0,0,0,0,0,-0.029,-0.0289,0,-0.0203,-0.0202,-0.0201,-0.0146,-0.0146,-0.0145,-0.0145,-0.003,-0.0027,-0.0024,0,0,0,0,0,0,0,0,0,0,0,0,0,-0.0349,-0.0349,-0.029,-0.0289,-0.0288,-0.0203,-0.0202,-0.0201,-0.0146,-0.0146,-0.0145,-0.0145,-0.0031,-0.0027,-0.0024,0,0,0,0,0,0,0,0,0,0,0,0,0,-0.0298,-0.0349,-0.029,-0.0252,-0.0247,-0.0204,-0.0202,-0.02,-0.0146,-0.0146,-0.0145,-0.0145,-0.0032,-0.0027,-0.0023,-0.0002,0,0,-0.001,-0.0008,0,0,0,0,0,0,0,0,-0.0301,-0.0296,-0.0258,-0.0254,-0.0249,-0.0186,-0.018,-0.0133,-0.0146,-0.0183,-0.0145,-0.0145,-0.008,-0.0072,-0.0055,0.0003,0.0008,-0.001,-0.0007,-0.0005,-0.0004,0,0,0,0,0,0,0,-0.0305,-0.0299,-0.0254,-0.0257,-0.0252,-0.0218,-0.0211,-0.0171,-0.0133,-0.018,-0.0176,-0.0168,-0.0078,-0.0059,-0.0052,0.001,-0.001,-0.0006,-0.0003,-0.0001,0.0094,0.0094,0,0,0,0,0,0,-0.0322,-0.0303,-0.0257,-0.0252,-0.0277,-0.0218,-0.021,-0.0206,-0.0134,-0.0123,-0.0169,-0.0166,-0.0067,-0.0057,-0.0047,-0.0018,-0.0005,-0.0001,0.0001,0.0094,0.0094,0.0094,0,0,0,0,0,0,-0.0323,-0.0319,-0.0261,-0.0276,-0.0266,-0.0218,-0.0213,-0.0204,-0.0187,-0.0126,-0.0114,-0.0161,-0.0066,-0.0053,-0.0012,-0.0013,0.0001,0.0005,0.0094,0.0094,0.0094,0.0041,0,0,0,0,0,0,-0.0325,-0.032,-0.0325,-0.0277,-0.0266,-0.0244,-0.0213,-0.0203,-0.0183,-0.0179,-0.0116,-0.0105,-0.0065,-0.0019,-0.0008,-0.0007,0.0008,0.0094,0.0094,0.0094,0.0043,0.004,0.0036,0,0,0,0,0,-0.0328,-0.034,-0.0326,-0.032,-0.0274,-0.0245,-0.0236,-0.0199,-0.0184,-0.0181,-0.0134,-0.0107,-0.0012,-0.0015,-0.0002,0.0,0.0095,0.0094,0.0094,0.0045,0.004,0.0037,0,0,0,0,0,0,-0.0369,-0.0334,-0.0318,-0.0318,-0.0288,-0.0236,-0.0233,-0.0205,-0.0166,-0.0162,-0.0103,-0.0088,-0.0055,-0.0021,-0.0026,0.0027,0.0044,0.0047,0.0002,-0.0002,-0.0005,-0.0018,0.0012,0,0,0,0,0,-0.0381,-0.0381,-0.0338,-0.034,-0.0329,-0.0282,-0.0266,-0.024,-0.0199,-0.0181,-0.0135,-0.0087,-0.0045,-0.0019,0.002,0.0052,0.0092,0.0061,0.0057,0.0054,0.0052,0.0114,0.0116,0.0094,0.0094,0.0094,0,0,-0.0398,-0.0379,-0.0379,-0.0349,-0.0323,-0.0315,-0.0271,-0.0255,-0.024,-0.0175,-0.0145,-0.01,-0.004,-0.0005,0.0013,0.0024,0.0081,0.0054,0.0051,0.0051,0.0114,0.0116,0.0118,0.0094,0.0094,0.0094,0,0,-0.0437,-0.0415,-0.043,-0.0406,-0.0375,-0.0345,-0.0345,-0.0296,-0.0266,-0.0232,-0.0181,-0.0134,-0.0074,-0.0025,0.0006,0.0008,0.0057,0.0015,-0.0006,0.0053,0.0056,0.0058,0.0107,0.0115,0.0017,0.0017,0.0017,0,-0.0462,-0.0469,-0.043,-0.0432,-0.0418,-0.0365,-0.0372,-0.0334,-0.0277,-0.0248,-0.0234,-0.0129,-0.0082,-0.0022,-0.0023,0.0001,0.0038,0.0004,0.0049,0.0052,0.0056,0.0106,0.0114,0.0015,0.0015,0.0015,0.0016,0,-0.0506,-0.0509,-0.0515,-0.0502,-0.0481,-0.0479,-0.0423,-0.0396,-0.0357,-0.0311,-0.0247,-0.0174,-0.0111,-0.0089,-0.0054,-0.0004,0.0014,0.0034,0.0057,0.0055,0.0107,0.0118,0.0011,0.0012,0.0013,0.0013,0,0,-0.0568,-0.0554,-0.0554,-0.0559,-0.0516,-0.0507,-0.0477,-0.0432,-0.0409,-0.0341,-0.0298,-0.0217,-0.017,-0.0132,-0.0075,-0.002,0.0036,0.0011,0.0015,0.0055,0.0161,0.02,0.0215,0.0064,0.0065,0.0066,0.0186,0,-0.0617,-0.065,-0.0617,-0.0637,-0.0648,-0.058,-0.0559,-0.0504,-0.0443,-0.0388,-0.029,-0.0235,-0.0187,-0.0157,-0.0093,0.0008,0.0061,0.0001,0.0161,0.0166,0.0198,0.0228,0.019,0.0296,0.0196,0.0198,0.0199,0,-0.0668,-0.0685,-0.072,-0.0706,-0.0702,-0.0699,-0.0647,-0.0618,-0.0517,-0.0464,-0.0378,-0.03,-0.0197,-0.0166,0.0007,-0.0034,0.0052,0.0128,0.0135,0.0197,0.0224,0.0284,0.0318,0.0217,0.0215,0.0214,0.0213,0,-0.0737,-0.075,-0.0784,-0.0778,-0.0756,-0.0748,-0.073,-0.0647,-0.0615,-0.0511,-0.0471,-0.0336,-0.0263,-0.0135,0.0032,0.0018,0.0222,0.0225,0.0341,0.0344,0.0357,0.0359,0.0334,0.0334,0.0334,0.0333,0.0333,0,-0.08,-0.0823,-0.0824,-0.0842,-0.0877,-0.0823,-0.0824,-0.0777,-0.0696,-0.0658,-0.0523,-0.0452,-0.0253,-0.0105,0.0028,0.0229,0.0224,0.0347,0.0385,0.0337,0.0336,0.0301,0.0296,0.0338,0.0337,0.0336,0.0335,0,-0.0865,-0.0865,-0.0909,-0.091,-0.0915,-0.0939,-0.0908,-0.0896,-0.081,-0.0752,-0.0721,-0.0528,-0.0324,-0.0118,0.0113,0.0228,0.0409,0.0473,0.0402,0.043,0.0486,0.0477,0.0611,0.0614,0.0616,0.0618,0.0619,0,-0.0903,-0.0934,-0.0976,-0.1009,-0.1015,-0.1034,-0.1041,-0.0971,-0.0943,-0.0793,-0.0765,-0.0552,-0.0382,-0.0015,0.0232,0.0491,0.048,0.0587,0.0557,0.0495,0.0518,0.0505,0.0493,0.0551,0.0551,0.0552,0.0553,0,-0.0974,-0.0986,-0.1027,-0.1103,-0.1135,-0.1161,-0.1157,-0.1148,-0.1045,-0.0965,-0.0809,-0.0659,-0.0288,0.002,0.0359,0.0493,0.0546,0.061,0.0586,0.0483,0.0448,0.0467,0.0455,0.0559,0.0558,0.0557,0.0557,0.0557,-0.1019,-0.1074,-0.1126,-0.1194,-0.1237,-0.1266,-0.1273,-0.1231,-0.1176,-0.1021,-0.0859,-0.0604,-0.0293,0.0199,0.0436,0.0642,0.0636,0.0675,0.0669,0.0663,0.0632,0.0602,0.0735,0.0735,0.0736,0.0736,0.0736,0,-0.1073,-0.1131,-0.1206,-0.1282,-0.1335,-0.1334,-0.133,-0.1293,-0.122,-0.1037,-0.0847,-0.0493,-0.0135,0.0173,0.0514,0.0721,0.0683,0.0736,0.0651,0.0645,0.0639,0.0603,0.0702,0.0702,0.0702,0.0703,0,0,-0.1103,-0.119,-0.1233,-0.1341,-0.1389,-0.1424,-0.1416,-0.1334,-0.1195,-0.0998,-0.0797,-0.0504,-0.012,0.0116,0.0384,0.0555,0.0536,0.0556,0.0563,0.0426,0.0418,0.0587,0.0523,0,0,0,0,0]}],[{"header":{"parameterUnit":"m.s-1","parameterCategory":2,"la1":30.2991,"la2":30.254,"lo1":-89.0895,"lo2":-89.0444,"dy":0.0017,"dx":0.0017,"nx":28,"ny":28,"refTime":"2023-09-21T09:00:00:Z","depth":"4","parameterNumber":2,"parameterNumberName":"U-component_of_CURRENTS"},"data":[0,0,0,0,0,0,0,0,0,0,0,0,0,0,0,0,0,0,0,0,0,0,0,0,0,0,0,0,0,0,0,0,0,0,0,0,0,0,0,0,0,0,0,0,0,0,0,0,0,0,0,0,0,0,0,0,0,0,-0.1758,-0.1758,0,-0.1816,-0.1817,-0.1817,-0.1856,-0.1856,-0.1857,-0.1857,-0.1901,-0.1902,-0.1903,0,0,0,0,0,0,0,0,0,0,0,0,0,-0.1663,-0.1665,-0.1758,-0.1759,-0.176,-0.1816,-0.1817,-0.1817,-0.1856,-0.1856,-0.1857,-0.1857,-0.1901,-0.1902,-0.1903,0,0,0,0,0,0,0,0,0,0,0,0,0,-0.1709,-0.1665,-0.1757,-0.1787,-0.1791,-0.1816,-0.1817,-0.1818,-0.1855,-0.1856,-0.1857,-0.1858,-0.1901,-0.1902,-0.1903,-0.1895,0,0,-0.1906,-0.1907,0,0,0,0,0,0,0,0,-0.1706,-0.1712,-0.1782,-0.1785,-0.1789,-0.1832,-0.18,-0.1844,-0.1855,-0.1828,-0.1857,-0.1858,-0.1878,-0.1881,-0.1887,-0.1897,-0.1899,-0.1906,-0.1907,-0.1908,-0.1908,0,0,0,0,0,0,0,-0.1703,-0.1709,-0.1778,-0.1783,-0.1788,-0.1793,-0.18,-0.1808,-0.1846,-0.183,-0.1834,-0.1845,-0.188,-0.1886,-0.1888,-0.1899,-0.1906,-0.1907,-0.1908,-0.1908,-0.1999,-0.2001,0,0,0,0,0,0,-0.1701,-0.1706,-0.1776,-0.178,-0.1752,-0.1795,-0.1802,-0.1815,-0.1846,-0.1852,-0.1844,-0.1846,-0.1883,-0.1887,-0.189,-0.1969,-0.1908,-0.1909,-0.1909,-0.1997,-0.1999,-0.2001,0,0,0,0,0,0,-0.1699,-0.1707,-0.1774,-0.1747,-0.1756,-0.1796,-0.181,-0.1816,-0.1855,-0.1857,-0.1863,-0.188,-0.1884,-0.1888,-0.1932,-0.1967,-0.1909,-0.191,-0.1995,-0.1998,-0.2,-0.2071,0,0,0,0,0,0,-0.1696,-0.1706,-0.1729,-0.1747,-0.1758,-0.1815,-0.1809,-0.1817,-0.1859,-0.1864,-0.1889,-0.1892,-0.1885,-0.193,-0.1933,-0.1968,-0.1911,-0.1993,-0.1996,-0.2,-0.2066,-0.2075,-0.2083,0,0,0,0,0,-0.1693,-0.1717,-0.173,-0.1739,-0.1783,-0.1816,-0.1823,-0.1851,-0.1861,-0.1886,-0.1907,-0.1893,-0.1953,-0.1933,-0.1935,-0.1971,-0.1991,-0.1995,-0.1999,-0.2062,-0.2074,-0.2083,0,0,0,0,0,0,-0.169,-0.1724,-0.1738,-0.1774,-0.1806,-0.1825,-0.1854,-0.1869,-0.1905,-0.1917,-0.1915,-0.192,-0.197,-0.1963,-0.194,-0.2008,-0.197,-0.1975,-0.2017,-0.2028,-0.2036,-0.2028,-0.1912,0,0,0,0,0,-0.1699,-0.1728,-0.1759,-0.1791,-0.181,-0.1837,-0.186,-0.1881,-0.1907,-0.1925,-0.1943,-0.1963,-0.1982,-0.2,-0.2014,-0.2051,-0.2027,-0.2077,-0.2085,-0.2093,-0.2088,-0.2085,-0.2093,-0.2014,-0.2014,-0.2014,0,0,-0.1707,-0.1731,-0.1749,-0.1793,-0.1819,-0.1855,-0.1853,-0.1899,-0.1936,-0.1922,-0.1985,-0.1995,-0.1999,-0.2043,-0.2065,-0.2046,-0.2106,-0.2098,-0.2104,-0.2095,-0.209,-0.2097,-0.2104,-0.2017,-0.2017,-0.2016,0,0,-0.1727,-0.176,-0.1789,-0.1823,-0.1873,-0.189,-0.1911,-0.1952,-0.1982,-0.2035,-0.2036,-0.2068,-0.2104,-0.2112,-0.2118,-0.2181,-0.215,-0.2196,-0.2234,-0.2233,-0.2238,-0.2243,-0.2231,-0.2234,-0.2201,-0.2202,-0.2202,0,-0.1738,-0.1776,-0.1805,-0.1844,-0.1875,-0.191,-0.1948,-0.1984,-0.2037,-0.2061,-0.2069,-0.2125,-0.2132,-0.217,-0.2197,-0.22,-0.219,-0.2194,-0.2242,-0.2246,-0.225,-0.2236,-0.2238,-0.2205,-0.2205,-0.2205,-0.2204,0,-0.1771,-0.1816,-0.1839,-0.1897,-0.1936,-0.1977,-0.2025,-0.2074,-0.2111,-0.2136,-0.2196,-0.2208,-0.2235,-0.2252,-0.2246,-0.2285,-0.2267,-0.2251,-0.2211,-0.2262,-0.2244,-0.2245,-0.2211,-0.221,-0.2208,-0.2207,0,0,-0.1748,-0.1843,-0.1853,-0.1891,-0.1968,-0.1998,-0.2069,-0.2126,-0.217,-0.2225,-0.2269,-0.2312,-0.2317,-0.2323,-0.2325,-0.2331,-0.2354,-0.2311,-0.2309,-0.229,-0.2347,-0.2202,-0.2189,-0.235,-0.2351,-0.2351,-0.2327,0,-0.1764,-0.1836,-0.1883,-0.1959,-0.1996,-0.2058,-0.2118,-0.218,-0.2229,-0.2284,-0.2308,-0.2351,-0.2346,-0.2364,-0.2373,-0.236,-0.236,-0.2362,-0.2308,-0.2306,-0.2163,-0.2186,-0.2353,-0.2327,-0.2328,-0.2328,-0.2328,0,-0.1767,-0.1818,-0.1891,-0.1986,-0.201,-0.2066,-0.2155,-0.2214,-0.2294,-0.2333,-0.2378,-0.2396,-0.2429,-0.2409,-0.2409,-0.2414,-0.2387,-0.2369,-0.2367,-0.2202,-0.2161,-0.2265,-0.2329,-0.2329,-0.2329,-0.2329,-0.2329,0,-0.171,-0.1816,-0.1873,-0.1908,-0.2024,-0.2075,-0.2136,-0.2227,-0.2275,-0.2361,-0.2395,-0.2437,-0.2454,-0.2443,-0.2413,-0.2419,-0.239,-0.2388,-0.2228,-0.2218,-0.2326,-0.2321,-0.2372,-0.2372,-0.2372,-0.2372,-0.2372,0,-0.1681,-0.1733,-0.1859,-0.1891,-0.1966,-0.2055,-0.2135,-0.2204,-0.2293,-0.2327,-0.2411,-0.2422,-0.2464,-0.2452,-0.2424,-0.2318,-0.2395,-0.2226,-0.2198,-0.2359,-0.2357,-0.2327,-0.2322,-0.2371,-0.2371,-0.2371,-0.2371,0,-0.1602,-0.1689,-0.1762,-0.1895,-0.1941,-0.1992,-0.2125,-0.2162,-0.2272,-0.2316,-0.2342,-0.2417,-0.2398,-0.241,-0.2381,-0.2304,-0.2236,-0.2176,-0.2343,-0.2326,-0.2068,-0.2067,-0.2001,-0.1995,-0.1991,-0.1987,-0.1984,0,-0.1563,-0.1593,-0.1742,-0.178,-0.1846,-0.1942,-0.1992,-0.2129,-0.2155,-0.2277,-0.2263,-0.2308,-0.2332,-0.2174,-0.2211,-0.2141,-0.2112,-0.2069,-0.2072,-0.2048,-0.2028,-0.2035,-0.2041,-0.1976,-0.1975,-0.1974,-0.1973,0,-0.1477,-0.1544,-0.1599,-0.1679,-0.1747,-0.1817,-0.1896,-0.1909,-0.2035,-0.216,-0.2124,-0.2111,-0.2085,-0.2059,-0.2015,-0.1967,-0.2098,-0.2021,-0.203,-0.2032,-0.2018,-0.2004,-0.2015,-0.1957,-0.1959,-0.196,-0.1961,0,-0.1403,-0.1418,-0.1491,-0.1546,-0.1627,-0.1645,-0.1723,-0.1744,-0.1799,-0.1936,-0.1912,-0.1969,-0.2049,-0.1966,-0.1924,-0.1869,-0.1846,-0.1785,-0.1807,-0.1825,-0.1778,-0.1735,-0.1551,0,0,0,0,0,-0.1311,-0.1306,-0.1345,-0.1394,-0.1466,-0.151,-0.1623,-0.1698,-0.1829,-0.1748,-0.1828,-0.1796,-0.1754,-0.1787,-0.1691,-0.1843,-0.1851,-0.1724,-0.1794,-0.1868,-0.1886,-0.1847,0,0,0,0,0,0,-0.1246,-0.1274,-0.1289,-0.1247,-0.1246,-0.1305,-0.1372,-0.1468,-0.1439,-0.158,-0.1562,-0.1674,-0.1654,-0.1765,-0.1644,-0.1654,-0.1659,-0.1772,-0.1767,-0.1857,-0.1874,-0.1889,-0.1855,0,0,0,0,0]},{"header":{"parameterUnit":"m.s-1","parameterCategory":2,"la1":30.2991,"la2":30.254,"lo1":-89.0895,"lo2":-89.0444,"dy":0.0017,"dx":0.0017,"nx":28,"ny":28,"refTime":"2023-09-21T09:00:00:Z","depth":"4","parameterNumber":3,"parameterNumberName":"V-component_of_CURRENTS"},"data":[0,0,0,0,0,0,0,0,0,0,0,0,0,0,0,0,0,0,0,0,0,0,0,0,0,0,0,0,0,0,0,0,0,0,0,0,0,0,0,0,0,0,0,0,0,0,0,0,0,0,0,0,0,0,0,0,0,0,-0.021,-0.0209,0,-0.0152,-0.0151,-0.0151,-0.0114,-0.0114,-0.0114,-0.0114,-0.0025,-0.0023,-0.002,0,0,0,0,0,0,0,0,0,0,0,0,0,-0.0243,-0.0242,-0.021,-0.0209,-0.0209,-0.0152,-0.0151,-0.0151,-0.0114,-0.0114,-0.0114,-0.0114,-0.0026,-0.0023,-0.002,0,0,0,0,0,0,0,0,0,0,0,0,0,-0.021,-0.0242,-0.021,-0.0185,-0.0182,-0.0153,-0.0151,-0.015,-0.0114,-0.0114,-0.0114,-0.0114,-0.0027,-0.0023,-0.002,-0.0001,0,0,-0.0009,-0.0008,0,0,0,0,0,0,0,0,-0.0212,-0.0208,-0.0189,-0.0186,-0.0183,-0.0142,-0.013,-0.0099,-0.0114,-0.0138,-0.0114,-0.0114,-0.0062,-0.0056,-0.0044,0.0003,0.0007,-0.0009,-0.0007,-0.0005,-0.0004,0,0,0,0,0,0,0,-0.0214,-0.021,-0.0186,-0.0188,-0.0185,-0.0161,-0.0156,-0.0124,-0.01,-0.0136,-0.0134,-0.013,-0.006,-0.0047,-0.0041,0.0008,-0.0009,-0.0006,-0.0004,-0.0003,0.0074,0.0074,0,0,0,0,0,0,-0.0227,-0.0213,-0.0187,-0.0184,-0.0199,-0.0161,-0.0155,-0.0154,-0.0101,-0.0093,-0.013,-0.0128,-0.0053,-0.0045,-0.0038,-0.0013,-0.0005,-0.0002,-0.0,0.0074,0.0074,0.0074,0,0,0,0,0,0,-0.0228,-0.0225,-0.019,-0.0198,-0.0192,-0.0161,-0.0159,-0.0153,-0.0143,-0.0097,-0.0088,-0.0127,-0.0052,-0.0043,-0.001,-0.0009,-0.0001,0.0002,0.0074,0.0074,0.0074,0.0037,0,0,0,0,0,0,-0.0229,-0.0226,-0.0232,-0.0199,-0.0192,-0.018,-0.0159,-0.0152,-0.0141,-0.0138,-0.0091,-0.0082,-0.0052,-0.0016,-0.0007,-0.0004,0.0005,0.0074,0.0074,0.0074,0.0039,0.0036,0.0034,0,0,0,0,0,-0.023,-0.024,-0.0232,-0.0229,-0.02,-0.0181,-0.0175,-0.0151,-0.0141,-0.014,-0.0105,-0.0084,-0.001,-0.0013,-0.0002,0.0001,0.0074,0.0074,0.0074,0.004,0.0036,0.0034,0,0,0,0,0,0,-0.0257,-0.0236,-0.0227,-0.023,-0.0211,-0.0175,-0.0175,-0.0156,-0.0127,-0.0126,-0.008,-0.0069,-0.0042,-0.0016,-0.0021,0.0022,0.0034,0.0036,0.0004,0.0002,-0.0,-0.0012,0.0008,0,0,0,0,0,-0.0267,-0.027,-0.0242,-0.0246,-0.024,-0.0208,-0.0198,-0.0182,-0.0152,-0.0139,-0.0105,-0.0068,-0.0034,-0.0014,0.0017,0.0044,0.0074,0.0051,0.0049,0.0047,0.0044,0.0096,0.0098,0.0074,0.0074,0.0074,0,0,-0.0279,-0.0268,-0.027,-0.0252,-0.0237,-0.0233,-0.0202,-0.0193,-0.0183,-0.0134,-0.0113,-0.0077,-0.003,-0.0001,0.0013,0.0021,0.0068,0.0046,0.0044,0.0043,0.0096,0.0099,0.0101,0.0074,0.0074,0.0074,0,0,-0.0308,-0.0296,-0.0309,-0.0294,-0.0276,-0.0256,-0.0256,-0.0223,-0.0204,-0.0178,-0.0139,-0.0101,-0.0055,-0.0015,0.001,0.0014,0.0051,0.0019,0.0004,0.0054,0.0057,0.0059,0.0095,0.0101,0.0021,0.0021,0.0021,0,-0.0325,-0.0335,-0.0309,-0.0313,-0.0307,-0.027,-0.0278,-0.0251,-0.0211,-0.0191,-0.0181,-0.0099,-0.006,-0.001,-0.0009,0.001,0.0037,0.0011,0.0051,0.0055,0.0058,0.0094,0.0101,0.002,0.002,0.002,0.002,0,-0.0357,-0.0365,-0.037,-0.0366,-0.0353,-0.0355,-0.0317,-0.03,-0.0273,-0.024,-0.0191,-0.0131,-0.0082,-0.0062,-0.0033,0.001,0.0021,0.004,0.0058,0.0058,0.0096,0.0104,0.0017,0.0018,0.0018,0.0019,0,0,-0.0396,-0.0396,-0.0399,-0.0409,-0.0381,-0.0379,-0.0359,-0.0329,-0.0316,-0.0263,-0.0235,-0.0164,-0.0128,-0.0097,-0.0049,-0.0,0.0048,0.0024,0.0028,0.0057,0.0149,0.0134,0.0142,0.0073,0.0075,0.0076,0.0164,0,-0.0432,-0.0463,-0.0444,-0.0468,-0.048,-0.0437,-0.0425,-0.0387,-0.0345,-0.0307,-0.0226,-0.0186,-0.0141,-0.0118,-0.0061,0.0022,0.0068,0.0021,0.0146,0.015,0.0135,0.0151,0.008,0.017,0.0172,0.0174,0.0175,0,-0.0466,-0.0486,-0.0521,-0.0526,-0.0526,-0.0531,-0.0504,-0.0487,-0.0413,-0.0376,-0.0308,-0.0245,-0.0158,-0.0129,0.0018,-0.0014,0.0058,0.0122,0.0128,0.0132,0.015,0.0172,0.019,0.0189,0.0188,0.0187,0.0186,0,-0.0511,-0.0534,-0.0571,-0.0571,-0.057,-0.0574,-0.0569,-0.0513,-0.0496,-0.042,-0.0393,-0.028,-0.0224,-0.011,0.0029,0.0023,0.0187,0.0197,0.0252,0.0252,0.0255,0.0251,0.0291,0.029,0.029,0.029,0.029,0,-0.0549,-0.0578,-0.0602,-0.0621,-0.0666,-0.0635,-0.0652,-0.0623,-0.057,-0.0549,-0.044,-0.039,-0.0217,-0.0098,0.002,0.0164,0.0184,0.0251,0.0277,0.0236,0.0229,0.0261,0.0256,0.0293,0.0293,0.0292,0.0291,0,-0.0584,-0.06,-0.065,-0.0676,-0.0692,-0.0723,-0.0727,-0.0726,-0.067,-0.0635,-0.0613,-0.0466,-0.0306,-0.0131,0.0064,0.0145,0.0288,0.0331,0.0269,0.029,0.0317,0.031,0.0394,0.0394,0.0394,0.0394,0.0395,0,-0.0603,-0.0634,-0.0704,-0.0745,-0.0764,-0.0802,-0.0823,-0.0788,-0.0774,-0.0677,-0.0659,-0.0503,-0.0388,-0.0114,0.0057,0.0285,0.0311,0.037,0.0347,0.0313,0.033,0.0322,0.0314,0.0395,0.0395,0.0395,0.0395,0,-0.064,-0.0671,-0.0716,-0.0806,-0.0854,-0.0898,-0.0918,-0.0912,-0.0851,-0.0808,-0.0676,-0.0518,-0.0337,-0.0119,0.0063,0.0221,0.0326,0.0373,0.0373,0.0352,0.0315,0.033,0.0322,0.0396,0.0396,0.0396,0.0396,0,-0.0666,-0.0714,-0.078,-0.0851,-0.0923,-0.0962,-0.0968,-0.0929,-0.0903,-0.078,-0.0742,-0.0526,-0.0396,-0.0153,0.0013,0.0173,0.0202,0.0231,0.0239,0.024,0.0168,0.0098,0.0136,0,0,0,0,0,-0.0682,-0.0738,-0.0815,-0.0893,-0.0962,-0.0996,-0.1013,-0.0996,-0.0938,-0.0853,-0.0788,-0.0611,-0.0337,-0.0213,-0.0055,-0.0005,0.021,0.0179,0.0242,0.04,0.0399,0.034,0,0,0,0,0,0,-0.0696,-0.0774,-0.0817,-0.0906,-0.0959,-0.1023,-0.1033,-0.0997,-0.093,-0.085,-0.0696,-0.06,-0.0329,-0.0423,-0.0059,-0.001,0.0043,0.0317,0.0319,0.0401,0.04,0.0399,0.0338,0,0,0,0,0]}]]